Location: Grand Rapids
(42.9630°N, 85.6680°W)
Time: 14:07:27
(UTC-04:00)

Envisat - Pass Details

Date: 22 April 2024
Orbit: 762 x 764 km, 98.3° (Epoch: 20 May)

Event Time Altitude Azimuth Distance (km) Brightness Sun altitude
Rises 03:44:02 0° 32° (NNE) 3,235 7.5 -27.9°
Reaches altitude 10° 03:47:26 10° 56° (NE) 2,303 6.3 -27.6°
Maximum altitude 03:50:13 15° 90° (E) 1,987 5.5 -27.3°
Drops below altitude 10° 03:53:00 10° 123° (ESE) 2,293 5.5 -27.0°
Enters shadow 03:53:52 - 131° (SE) 2,492 5.6 -26.9°
